Flag for Canada Weather past 2 weeks in Drummondville, Quebec, Canada

Now
59 °F

Cool.


Feels Like: 59 °F
Forecast: 53 / 75 °F
Wind: 1 mph from South

Location: Nicolet

Current Time: Jul 30, 2014 at 10:08:02 AM

Latest Report: Jul 30, 2014 at 8:00 AM


Visibility: N/A

Pressure: 30.01 "Hg

Humidity: 89%

Dew point: 55 °F

Location of DrummondvilleLocation

Historic Weather in Drummondville — Graph

°F

Drummondville temperature yesterday

Maximum temperature yesterday: 70 °F (at 4:00 PM)
Minimum temperature yesterday: 56 °F (at 2:00 AM)
Average temperature yesterday: 62 °F

Past Weeks' High & Low Weather Summary

 TemperatureHumidityPressure
High82 °F (Jul 21, 5:00 PM)100% (Jul 28, 4:00 PM)30.27 "Hg (Jul 28, 4:00 PM)
Low52 °F (Jul 30, 5:00 AM)46% (Jul 24, 4:00 PM)29.57 "Hg (Jul 27, 7:00 PM)
Average67 °F78%29.88 "Hg
* Reported Jul 15 8:00 AM — Jul 30 8:00 AM, Drummondville, Weather by CustomWeather, © 2014

Note: Actual official high and low records may vary slightly from our data, if they occured in-between our weather recording intervals... More about our weather records

Advertising

Drummondville weather history for previous 24 hours

 ConditionsComfort  
Time TempWeatherWind HumidityBarometerVisibility
8:00 AM
Jul 30
59 °FCool.1 mph89%30.01 "HgN/A
7:00 AM54 °FCool.2 mph95%29.99 "HgN/A
6:00 AM52 °FCool.2 mph97%29.98 "HgN/A
5:00 AM52 °FCool.3 mph90%29.97 "HgN/A
1:00 AM53 °FCool.2 mph93%29.93 "HgN/A
12:00 AM56 °FCool.3 mph89%29.93 "HgN/A
11:00 PM
Jul 29
57 °FCool.3 mph87%29.92 "HgN/A
10:00 PM59 °FCool.3 mph80%29.92 "HgN/A
9:00 PM60 °FCool.5 mph77%29.90 "HgN/A
8:00 PM65 °FMild.5 mph58%29.89 "HgN/A
5:00 PM69 °FMild.10 mph57%29.84 "HgN/A
4:00 PM70 °FMild.9 mph58%29.83 "HgN/A
3:00 PM70 °FMild.10 mph58%29.81 "HgN/A
2:00 PM67 °FMild.10 mph66%29.79 "HgN/A
1:00 PM67 °FMild.9 mph66%29.79 "HgN/A
12:00 PM67 °FMild.7 mph66%29.78 "HgN/A
10:00 AM62 °FCool.7 mph74%29.75 "HgN/A
Weather by CustomWeather, © 2014

See weather overviewHow to use our weather pages